When you browse on this site, cookies collect data to enhance your experience and personalize the content and advertising you see.
Visit our Privacy Policy to learn more. By continuing to use the site, you agree to this use of cookies and data.
  • In Portugal
  • List of Countries
  • For 7 days
  • Water Temperature
  • Satellite Maps
  • Weather Map
  • Weather Widgets
  • user-avatar
    Login

    Hourly Weather Berat

    Today, 16 December, Sunday

    Time Temperature Precipitation Wind Pressure Humidity
    00:00 +9°C° 1.8 mm 3 mps 742 mmHg 94%
    01:00 +9°C° 1.8 mm 3 mps 742 mmHg 95%
    02:00 +8°C° 0.5 mm 3 mps 742 mmHg 95%
    03:00 +8°C° 0.5 mm 3 mps 742 mmHg 94%
    04:00 +8°C° 0.5 mm 3 mps 742 mmHg 94%
    05:00 +8°C° 0.1 mm 3 mps 742 mmHg 93%
    06:00 +8°C° 0.1 mm 3 mps 742 mmHg 91%
    07:00 +8°C° 0.1 mm 3 mps 743 mmHg 89%
    08:00 +8°C° 0 mm 3 mps 743 mmHg 85%
    09:00 +8°C° 0 mm 3 mps 743 mmHg 81%
    10:00 +7°C° 0 mm 4 mps 744 mmHg 76%
    11:00 +7°C° 0 mm 4 mps 744 mmHg 73%
    12:00 +8°C° 0 mm 4 mps 744 mmHg 70%
    13:00 +8°C° 0 mm 4 mps 744 mmHg 67%
    14:00 +7°C° 0 mm 4 mps 744 mmHg 69%
    15:00 +8°C° 0 mm 3 mps 745 mmHg 72%
    16:00 +7°C° 0 mm 3 mps 745 mmHg 75%
    17:00 +6°C° 0 mm 2 mps 745 mmHg 78%
    18:00 +6°C° 0 mm 2 mps 746 mmHg 81%
    19:00 +5°C° 0 mm 2 mps 746 mmHg 85%
    20:00 +5°C° 0 mm 2 mps 746 mmHg 84%
    21:00 +5°C° 0 mm 2 mps 746 mmHg 84%
    22:00 +5°C° 0 mm 1 mps 747 mmHg 83%
    23:00 +5°C° 0 mm 1 mps 747 mmHg 81%

    Tomorrow, 17 December, Monday

    Time Temperature Precipitation Wind Pressure Humidity
    00:00 +6°C° 0 mm 1 mps 747 mmHg 80%
    01:00 +6°C° 0 mm 1 mps 747 mmHg 78%
    02:00 +6°C° 0 mm 1 mps 746 mmHg 76%
    03:00 +6°C° 0 mm 1 mps 746 mmHg 74%
    04:00 +6°C° 0 mm 1 mps 745 mmHg 72%
    05:00 +6°C° 0 mm 1 mps 745 mmHg 69%
    06:00 +6°C° 0 mm 2 mps 745 mmHg 67%
    07:00 +6°C° 0 mm 2 mps 745 mmHg 64%
    08:00 +7°C° 0.5 mm 2 mps 745 mmHg 65%
    09:00 +7°C° 0.5 mm 2 mps 745 mmHg 65%
    10:00 +7°C° 0.5 mm 2 mps 745 mmHg 66%
    11:00 +8°C° 0.3 mm 3 mps 744 mmHg 66%
    12:00 +8°C° 0.3 mm 3 mps 744 mmHg 66%
    13:00 +7°C° 0.3 mm 4 mps 743 mmHg 67%
    14:00 +7°C° 0.8 mm 4 mps 743 mmHg 70%
    15:00 +7°C° 0.8 mm 4 mps 742 mmHg 74%
    16:00 +6°C° 0.8 mm 4 mps 742 mmHg 78%
    17:00 +6°C° 3.9 mm 4 mps 742 mmHg 82%
    18:00 +7°C° 3.9 mm 3 mps 741 mmHg 85%
    19:00 +7°C° 3.9 mm 3 mps 741 mmHg 89%
    20:00 +7°C° 3.2 mm 3 mps 742 mmHg 90%
    21:00 +7°C° 3.2 mm 3 mps 742 mmHg 90%
    22:00 +5°C° 3.2 mm 3 mps 742 mmHg 91%
    23:00 +5°C° 0.4 mm 3 mps 742 mmHg 90%

    Day after tomorrow, 18 December, Tuesday

    Time Temperature Precipitation Wind Pressure Humidity
    00:00 +5°C° 0.4 mm 3 mps 742 mmHg 89%
    01:00 +5°C° 0.4 mm 3 mps 742 mmHg 88%
    02:00 +5°C° 0.8 mm 3 mps 742 mmHg 88%
    03:00 +5°C° 0.8 mm 3 mps 742 mmHg 87%
    04:00 +4°C° 0.8 mm 3 mps 743 mmHg 87%
    05:00 +4°C° 0.6 mm 3 mps 743 mmHg 87%
    06:00 +4°C° 0.6 mm 3 mps 743 mmHg 87%
    07:00 +4°C° 0.6 mm 3 mps 744 mmHg 86%
    08:00 +5°C° 0.1 mm 3 mps 744 mmHg 85%
    09:00 +5°C° 0.1 mm 3 mps 745 mmHg 84%
    10:00 +7°C° 0.1 mm 3 mps 745 mmHg 82%
    11:00 +7°C° 0 mm 3 mps 745 mmHg 82%
    12:00 +8°C° 0 mm 3 mps 745 mmHg 81%
    13:00 +8°C° 0 mm 3 mps 745 mmHg 81%
    14:00 +8°C° 0 mm 3 mps 746 mmHg 82%
    15:00 +7°C° 0 mm 3 mps 746 mmHg 83%
    16:00 +7°C° 0 mm 3 mps 746 mmHg 84%
    17:00 +5°C° 0 mm 3 mps 747 mmHg 84%
    18:00 +4°C° 0 mm 3 mps 748 mmHg 84%
    19:00 +4°C° 0 mm 3 mps 748 mmHg 83%
    20:00 +4°C° 0 mm 3 mps 748 mmHg 83%
    21:00 +3°C° 0 mm 3 mps 749 mmHg 82%
    22:00 +3°C° 0 mm 3 mps 749 mmHg 82%
    23:00 +4°C° 0 mm 2 mps 749 mmHg 81%

    19 December, Wednesday

    Time Temperature Precipitation Wind Pressure Humidity
    00:00 +4°C° 0 mm 2 mps 749 mmHg 80%
    01:00 +4°C° 0 mm 2 mps 749 mmHg 80%
    02:00 +4°C° 0 mm 2 mps 749 mmHg 79%
    03:00 +4°C° 0 mm 2 mps 749 mmHg 78%
    04:00 +4°C° 0 mm 2 mps 749 mmHg 78%
    05:00 +4°C° 0 mm 2 mps 750 mmHg 77%
    06:00 +4°C° 0 mm 2 mps 750 mmHg 76%
    07:00 +4°C° 0 mm 2 mps 750 mmHg 76%
    08:00 +6°C° 0 mm 1 mps 750 mmHg 75%
    09:00 +8°C° 0 mm 1 mps 750 mmHg 74%
    10:00 +10°C° 0 mm 1 mps 751 mmHg 73%
    11:00 +10°C° 0 mm 1 mps 750 mmHg 72%
    12:00 +11°C° 0 mm 1 mps 750 mmHg 70%
    13:00 +11°C° 0 mm 1 mps 750 mmHg 69%
    14:00 +10°C° 0 mm 1 mps 750 mmHg 71%
    15:00 +9°C° 0 mm 1 mps 750 mmHg 72%
    16:00 +8°C° 0 mm 1 mps 750 mmHg 74%
    17:00 +7°C° 0 mm 1 mps 750 mmHg 73%
    18:00 +7°C° 0 mm 1 mps 750 mmHg 72%
    19:00 +6°C° 0 mm 1 mps 750 mmHg 71%
    20:00 +6°C° 0 mm 1 mps 751 mmHg 69%
    21:00 +6°C° 0 mm 1 mps 751 mmHg 66%
    22:00 +6°C° 0 mm 1 mps 751 mmHg 64%
    23:00 +6°C° 0 mm 1 mps 751 mmHg 63%

    20 December, Thursday

    Time Temperature Precipitation Wind Pressure Humidity
    00:00 +6°C° 0 mm 1 mps 751 mmHg 62%
    01:00 +5°C° 0 mm 2 mps 751 mmHg 61%
    02:00 +5°C° 0 mm 2 mps 751 mmHg 61%
    03:00 +5°C° 0 mm 2 mps 750 mmHg 61%
    04:00 +5°C° 0 mm 2 mps 750 mmHg 60%
    05:00 +5°C° 0 mm 2 mps 750 mmHg 61%
    06:00 +4°C° 0 mm 3 mps 750 mmHg 61%
    07:00 +4°C° 0 mm 3 mps 751 mmHg 61%
    08:00 +5°C° 0 mm 3 mps 751 mmHg 64%
    09:00 +8°C° 0 mm 3 mps 751 mmHg 66%
    10:00 +9°C° 0 mm 3 mps 751 mmHg 68%
    11:00 +10°C° 0 mm 4 mps 751 mmHg 69%
    12:00 +10°C° 0 mm 4 mps 750 mmHg 69%
    13:00 +11°C° 0 mm 4 mps 750 mmHg 70%
    14:00 +10°C° 0 mm 4 mps 750 mmHg 73%
    15:00 +10°C° 0 mm 4 mps 750 mmHg 76%
    16:00 +8°C° 0 mm 4 mps 749 mmHg 80%
    17:00 +7°C° 0.1 mm 4 mps 750 mmHg 81%
    18:00 +7°C° 0.1 mm 4 mps 750 mmHg 83%
    19:00 +7°C° 0.1 mm 5 mps 750 mmHg 84%
    20:00 +7°C° 0.3 mm 5 mps 750 mmHg 85%
    21:00 +7°C° 0.3 mm 5 mps 750 mmHg 85%
    22:00 +7°C° 0.3 mm 5 mps 750 mmHg 86%
    23:00 +7°C° 0.7 mm 4 mps 749 mmHg 87%

    21 December, Friday

    Time Temperature Precipitation Wind Pressure Humidity
    00:00 +7°C° 0.7 mm 4 mps 749 mmHg 89%
    01:00 +8°C° 0.7 mm 3 mps 749 mmHg 90%
    02:00 +8°C° 0.6 mm 3 mps 749 mmHg 91%
    03:00 +8°C° 0.6 mm 3 mps 749 mmHg 93%
    04:00 +8°C° 0.6 mm 2 mps 748 mmHg 94%
    05:00 +8°C° 0.3 mm 2 mps 748 mmHg 95%
    06:00 +8°C° 0.3 mm 2 mps 748 mmHg 95%
    07:00 +8°C° 0.3 mm 2 mps 748 mmHg 95%
    08:00 +9°C° 0.4 mm 2 mps 749 mmHg 91%
    09:00 +10°C° 0.4 mm 2 mps 749 mmHg 88%
    10:00 +12°C° 0.4 mm 2 mps 749 mmHg 84%
    11:00 +12°C° 0.3 mm 2 mps 748 mmHg 82%
    12:00 +11°C° 0.3 mm 3 mps 748 mmHg 79%
    13:00 +11°C° 0.3 mm 3 mps 748 mmHg 77%
    14:00 +11°C° 0.3 mm 3 mps 748 mmHg 80%
    15:00 +10°C° 0.3 mm 2 mps 748 mmHg 83%
    16:00 +9°C° 0.3 mm 2 mps 748 mmHg 86%
    17:00 +9°C° 0.3 mm 2 mps 748 mmHg 87%
    18:00 +8°C° 0.3 mm 2 mps 748 mmHg 88%
    19:00 +7°C° 0.3 mm 2 mps 749 mmHg 90%
    20:00 +7°C° 0.5 mm 2 mps 749 mmHg 90%
    21:00 +7°C° 0.5 mm 2 mps 749 mmHg 90%
    22:00 +7°C° 0.5 mm 2 mps 749 mmHg 91%
    23:00 +7°C° 0.4 mm 2 mps 749 mmHg 91%
    Show more